Weather History for Cooperstown, ND

Change the Weather History Date:

Monday, October 8, 2012

  Actual Average (KJMS) Record (KJMS)
Temperature  
Mean Temperature 42 °F 48 °F  
Max Temperature 51 °F 60 °F 88 °F (1936)
Min Temperature 33 °F 36 °F 12 °F (1895)
Degree Days  
Heating Degree Days 23 17  
Month to date heating degree days 126  
Since 1 July heating degree days 444  
Cooling Degree Days 0 0  
Month to date cooling degree days 0  
Year to date cooling degree days 445  
Moisture  
Dew Point 37 °F    
Average Humidity 83    
Maximum Humidity 100    
Minimum Humidity 57    
Precipitation  
Precipitation 0.00 in 0.05 in 0.77 in (1959)
Month to date precipitation 0.47  
Year to date precipitation 16.66  
Sea Level Pressure  
Sea Level Pressure 29.59 in    
Wind  
Wind Speed 11 mph (WSW)    
Max Wind Speed 30 mph    
Max Gust Speed 38 mph    
Visibility 10 miles    
Events Rain    
T = Trace of Precipitation, MM = Missing Value Source: NWS Daily Summary

Daily Weather History Graph

Daily Weather History Graph

Search for Another Location

Airport:

Trip Planner

Search our weather history database for the weather conditions in past years. The results will help you decide how hot, cold, wet, or windy it might be!

Date:

Astronomy

Oct. 08, 2012 Rise Set
Actual Time 7:41 AM CDT 6:56 PM CDT
Civil Twilight 7:11 AM CDT 7:27 PM CDT
Nautical Twilight 6:35 AM CDT 8:03 PM CDT
Astronomical Twilight 5:59 AM CDT 8:38 PM CDT
Moon No Moon Rise 3:12 PM CDT (10/8)
Length of Visible Light 12h 16m
Length of Day
11h 15m
Last Quarter, 46% of the Moon is Illuminated
Oct 8
Last Quarter
Oct 15
New
Oct 21
First Quarter
Oct 29
Full
Nov 6
Last Quarter

Hourly Weather History & Observations

Time (CDT) Temp. Windchill Dew Point Humidity Pressure Visibility Wind Dir Wind Speed Gust Speed Precip Events Conditions
12:15 AM 35.6 °F 30.7 °F 32.0 °F 87% 29.71 in 10.0 mi South 5.8 mph - N/A   Scattered Clouds
12:35 AM 37.4 °F 31.4 °F 32.0 °F 81% 29.71 in 10.0 mi SW 8.1 mph - N/A   Partly Cloudy
12:55 AM 37.4 °F 30.8 °F 32.0 °F 81% 29.70 in 10.0 mi SSW 9.2 mph - N/A   Mostly Cloudy
1:15 AM 37.4 °F 30.8 °F 32.0 °F 81% 29.70 in 10.0 mi SW 9.2 mph - N/A   Overcast
1:35 AM 37.4 °F 31.4 °F 32.0 °F 81% 29.69 in 10.0 mi SW 8.1 mph - N/A   Scattered Clouds
1:55 AM 37.4 °F 33.8 °F 33.8 °F 87% 29.68 in 10.0 mi SSW 4.6 mph - N/A   Mostly Cloudy
2:15 AM 37.4 °F 33.8 °F 35.6 °F 93% 29.67 in 10.0 mi SSW 4.6 mph - N/A   Mostly Cloudy
2:35 AM 37.4 °F 33.8 °F 35.6 °F 93% 29.66 in 10.0 mi South 4.6 mph - N/A   Overcast
2:55 AM 37.4 °F 32.8 °F 33.8 °F 87% 29.65 in 10.0 mi South 5.8 mph - N/A   Mostly Cloudy
3:15 AM 37.4 °F 30.8 °F 35.6 °F 93% 29.64 in 10.0 mi South 9.2 mph - N/A   Overcast
3:35 AM 39.2 °F 33.6 °F 37.4 °F 93% 29.63 in 10.0 mi SSW 8.1 mph - N/A   Overcast
3:55 AM 39.2 °F 35.9 °F 37.4 °F 93% 29.62 in 10.0 mi SSW 4.6 mph - N/A   Overcast
4:15 AM 39.2 °F 34.2 °F 37.4 °F 93% 29.60 in 10.0 mi SSW 6.9 mph - N/A   Scattered Clouds
4:35 AM 37.4 °F 32.1 °F 37.4 °F 100% 29.60 in 10.0 mi South 6.9 mph - N/A   Scattered Clouds
4:55 AM 37.4 °F 31.4 °F 37.4 °F 100% 29.59 in 10.0 mi South 8.1 mph - N/A   Mostly Cloudy
5:15 AM 39.2 °F 34.2 °F 37.4 °F 93% 29.58 in 10.0 mi South 6.9 mph - N/A   Overcast
5:35 AM 39.2 °F 34.2 °F 39.2 °F 100% 29.57 in 10.0 mi South 6.9 mph - N/A   Overcast
5:55 AM 39.2 °F 33.6 °F 39.2 °F 100% 29.56 in 10.0 mi South 8.1 mph - N/A   Overcast
6:15 AM 39.2 °F 33.0 °F 39.2 °F 100% 29.55 in 10.0 mi South 9.2 mph - N/A   Overcast
6:35 AM 41.0 °F 34.3 °F 39.2 °F 93% 29.53 in 10.0 mi South 11.5 mph - N/A   Overcast
6:55 AM 41.0 °F 33.5 °F 39.2 °F 93% 29.52 in 10.0 mi South 13.8 mph - N/A   Overcast
7:15 AM 41.0 °F 33.9 °F 39.2 °F 93% 29.52 in 10.0 mi South 12.7 mph - N/A   Overcast
7:35 AM 41.0 °F 33.1 °F 41.0 °F 100% 29.51 in 10.0 mi South 15.0 mph - N/A   Mostly Cloudy
7:55 AM 44.6 °F 38.1 °F 39.2 °F 81% 29.51 in 10.0 mi SSW 13.8 mph - N/A   Mostly Cloudy
8:15 AM 44.6 °F 39.7 °F 39.2 °F 81% 29.50 in 10.0 mi SSW 9.2 mph - N/A   Mostly Cloudy
8:35 AM 44.6 °F 39.2 °F 39.2 °F 81% 29.49 in 10.0 mi SSW 10.4 mph - N/A   Scattered Clouds
8:55 AM 44.6 °F 39.2 °F 39.2 °F 81% 29.50 in 10.0 mi WSW 10.4 mph - N/A   Mostly Cloudy
9:15 AM 44.6 °F 38.8 °F 41.0 °F 87% 29.49 in 6.0 mi West 11.5 mph - N/A Rain Light Rain
9:35 AM 44.6 °F 38.4 °F 42.8 °F 93% 29.50 in 10.0 mi West 12.7 mph - N/A   Overcast
9:55 AM 46.4 °F 39.2 °F 44.6 °F 93% 29.50 in 10.0 mi West 18.4 mph - N/A   Scattered Clouds
10:15 AM 46.4 °F 39.2 °F 44.6 °F 93% 29.50 in 10.0 mi WNW 18.4 mph 24.2 mph N/A   Partly Cloudy
10:35 AM 46.4 °F 38.3 °F 44.6 °F 93% 29.50 in 10.0 mi WNW 23.0 mph 28.8 mph N/A   Mostly Cloudy
10:55 AM 46.4 °F 37.9 °F 44.6 °F 93% 29.50 in 10.0 mi WNW 25.3 mph 31.1 mph N/A   Overcast
11:15 AM 46.4 °F 37.7 °F 42.8 °F 87% 29.51 in 10.0 mi NW 26.5 mph 33.4 mph N/A   Overcast
11:35 AM 46.4 °F 37.2 °F 42.8 °F 87% 29.52 in 10.0 mi NW 29.9 mph 38.0 mph N/A   Overcast
11:55 AM 46.4 °F 38.3 °F 41.0 °F 81% 29.53 in 10.0 mi NW 23.0 mph 35.7 mph N/A   Overcast
12:15 PM 46.4 °F 37.9 °F 41.0 °F 81% 29.54 in 10.0 mi NW 25.3 mph 35.7 mph N/A   Overcast
12:35 PM 46.4 °F 37.9 °F 41.0 °F 81% 29.55 in 10.0 mi NW 25.3 mph 33.4 mph N/A   Overcast
12:55 PM 48.2 °F - 41.0 °F 76% 29.56 in 10.0 mi NW 23.0 mph 35.7 mph N/A   Overcast
1:15 PM 48.2 °F - 41.0 °F 76% 29.56 in 10.0 mi NW 24.2 mph 32.2 mph N/A   Mostly Cloudy
1:35 PM 48.2 °F - 39.2 °F 71% 29.57 in 10.0 mi NW 21.9 mph 34.5 mph N/A   Overcast
1:55 PM 48.2 °F - 39.2 °F 71% 29.57 in 10.0 mi NW 23.0 mph 33.4 mph N/A   Overcast
2:15 PM 48.2 °F - 37.4 °F 66% 29.58 in 10.0 mi NNW 19.6 mph 32.2 mph N/A   Mostly Cloudy
2:35 PM 48.2 °F - 39.2 °F 71% 29.58 in 10.0 mi NW 18.4 mph 25.3 mph N/A   Overcast
2:55 PM 50.0 °F - 39.2 °F 66% 29.59 in 10.0 mi NW 20.7 mph 26.5 mph N/A   Overcast
3:15 PM 50.0 °F - 39.2 °F 66% 29.59 in 10.0 mi NW 23.0 mph 29.9 mph N/A   Overcast
3:35 PM 51.8 °F - 37.4 °F 58% 29.59 in 10.0 mi NW 19.6 mph 26.5 mph N/A   Mostly Cloudy
7:35 PM 46.4 °F 41.1 °F 32.0 °F 57% 29.65 in 10.0 mi WNW 11.5 mph - N/A   Overcast
7:55 PM 46.4 °F 40.4 °F 32.0 °F 57% 29.65 in 10.0 mi WNW 13.8 mph - N/A   Scattered Clouds
8:15 PM 46.4 °F 40.7 °F 32.0 °F 57% 29.66 in 10.0 mi WNW 12.7 mph - N/A   Partly Cloudy
8:35 PM 44.6 °F 37.4 °F 32.0 °F 61% 29.66 in 10.0 mi WNW 16.1 mph 19.6 mph N/A   Partly Cloudy
8:55 PM 44.6 °F 38.1 °F 32.0 °F 61% 29.66 in 10.0 mi WNW 13.8 mph - N/A   Clear
9:15 PM 41.0 °F 33.9 °F 32.0 °F 70% 29.66 in 10.0 mi WNW 12.7 mph - N/A   Clear
9:35 PM 41.0 °F 34.3 °F 32.0 °F 70% 29.67 in 10.0 mi WNW 11.5 mph - N/A   Clear
9:55 PM 37.4 °F 30.3 °F 32.0 °F 81% 29.67 in 10.0 mi West 10.4 mph - N/A   Clear
11:15 PM 35.6 °F 27.5 °F 32.0 °F 87% 29.67 in 10.0 mi West 11.5 mph - N/A   Clear
11:35 PM 33.8 °F 24.8 °F 32.0 °F 93% 29.67 in 10.0 mi West 12.7 mph - N/A   Clear
11:55 PM 33.8 °F 24.8 °F 32.0 °F 93% 29.67 in 10.0 mi West 12.7 mph - N/A   Clear